Location: Walton
(43.6794°N, 81.3017°W)
Time: 19:31:31
(UTC+00:00)

BREEZE-M DEB (TANK) - Pass Details

Date: 15 March 2026
Orbit: 322 x 14399 km, 49.6° (Epoch: 16 April)

Event Time Altitude Azimuth Distance (km) Brightness Sun altitude
Rises 02:08:13 0° 294° (WNW) 5,182 9.2 -28.4°
Reaches altitude 10° 02:13:03 10° 297° (WNW) 2,917 7.6 -29.2°
Enters shadow 02:17:10 37° 309° (NW) 940 4.6 -29.9°
